Current Version              Previous Version:    01  02  03  04  05  06  07  08  09  10  11  12  13  14  15  16  17  18  19  20  21  22  23  24  25  26  27  28  29  30  
   31  32  33  34  35  36  37  38  39  40  41  42  43  44  45  46  47  48  49  50  51  52  53  54  55  56  57  58  59  60  

[Printable]
018
ASUS44 KEWX 211110
RWRTX
SOUTH TEXAS REGIONAL WEATHER ROUNDUP
NATIONAL WEATHER SERVICE AUSTIN/SAN ANTONIO TX
500 AM CST FRI NOV 21 2014

NOTE: "FAIR" INDICATED FEW OR NO CLOUDS BELOW 12,000 FEET WITH NO
SIGNIFICANT WEATHER AND/OR OBSTRUCTIONS TO VISIBILITY.

* - THESE STATIONS ARE NOT NWS OR FAA STATIONS...AND ARE NOT SUBJECT
    TO NWS AND FAA QUALITY CONTROL.

TXZ171-172-183>190-211200-
TEXAS HILL COUNTRY AND EDWARDS PLATEAU

CITY           SKY/WX    TMP DP  RH WIND       PRES   REMARKS
JUNCTION       CLOUDY    53  50  89 NW5       30.03R
*LLANO         CLOUDY    61  61 100 CALM      30.07S FOG
BURNET         MOCLDY    61  60  97 SE5       30.06S
*HORSESHOE BAY FOG       55  55 100 CALM      30.04S VSB 1/2
*KERRVILLE     CLOUDY    61  59  93 SE8       30.04F
*FREDERICKSBRG CLOUDY    60  58  94 S5        30.04S
*ROCKSPRINGS   CLOUDY    61  59  94 MISG      30.06R
*BOERNE STAGE  CLOUDY    63  61  94 S6        30.06S
*CASTROVILLE   CLOUDY    64  64  98 SE6       30.05S FOG
HONDO          CLOUDY    59  32  36 SE8       30.04F FOG
*UVALDE        CLOUDY    63  63  99 E6        30.03S FOG
DEL RIO        FOG       57  56  96 CALM      30.01R VSB 1/4
LAUGHLIN AFB   FOG       57  57  99 CALM      30.01S VSB 1/4
CARRIZO SPRGS  CLOUDY    63  63 100 SE5       29.99F FOG
$$

TXZ173-191>194-202-209-217>225-228-211200-
CENTRAL AND SOUTH CENTRAL TEXAS

CITY           SKY/WX    TMP DP  RH WIND       PRES   REMARKS
GEORGETOWN     CLOUDY    63  61  94 SE3       30.05S VSB 3/4
AUSTIN/BERGSTM CLOUDY    63  63 100 S8        30.04S
AUSTIN/MABRY   CLOUDY    64  64 100 S5        30.05F
*AUSTIN/EXEC   FOG       63  63 100 CALM      30.05S VSB 1
*LAGO VISTA    CLOUDY    64  62  94 CALM      30.05S FOG
SAN MARCOS     CLOUDY    41 N/A N/A S7        30.05F WCI  36
NEW BRAUNFELS  CLOUDY    66  63  90 S8        30.03S
RANDOLPH AFB   CLOUDY    65  63  95 S7        30.04F
PT SAN ANTONIO CLOUDY    64  64  99 SE5       30.02S
SAN ANTONIO    DRIZZLE   65  64  97 S5        30.04S FOG
STINSON FIELD  CLOUDY    64  63  96 SE6       30.02F
*PLEASANTON    CLOUDY    64  63  97 CALM      30.04F
*LA GRANGE     CLOUDY    64  64  98 CALM      30.05S FOG
*GIDDINGS      CLOUDY    62  61  97 CALM      30.10S FOG
*GONZALES      CLOUDY    66  65  99 S3        30.05S FOG
$$

TXZ163>164-176>182-195>201-210>213-226-227-235-211200-
SOUTHEAST TEXAS

CITY           SKY/WX    TMP DP  RH WIND       PRES   REMARKS
COLLEGE STN    CLOUDY    61  60  97 SE5       30.08R
*BRYAN         CLOUDY    60  60  98 SE5       30.10R
*CALDWELL      CLOUDY    61  61 100 SE6       30.10S FOG
*CROCKETT      CLOUDY    63  63 100 SE5       30.14S
*BRENHAM       LGT RAIN  63  62  97 CALM      30.09S
HUNTSVILLE     CLOUDY    61  60  97 VRB5      30.09S
CONROE         CLOUDY    61  60  97 SE6       30.11S
HOUSTON BUSH   RAIN      62  61  96 SE6       30.10R FOG
HOUSTON HOBBY  RAIN      63  62  97 SE7       30.09S FOG
*HOUSTON SW AP HVY RAIN  55  55 100 SE6       30.09S
PEARLAND       LGT RAIN  65  63  93 E3        30.10F FOG
HOUSTON HOOKS  CLOUDY    62  61  96 E6        30.09S FOG
ELLINGTON FLD  CLOUDY    64  63  94 NE2       30.10S
SUGAR LAND     CLOUDY    64  61  90 SE7       30.08S
*HOUSTON EXEC  CLOUDY    63 N/A N/A SE9       30.09R
*CLEVELAND MUN NOT AVBL
*WHARTON       CLOUDY    64  63  97 SE5       30.07S
*COLUMBUS      CLOUDY    62  62  99 CALM      30.06S FOG
$$

TXZ214>216-236>238-211200-
THE UPPER TEXAS COAST

CITY           SKY/WX    TMP DP  RH WIND       PRES   REMARKS
*ORANGE        CLOUDY    61  57  86 E7        30.16R
PORT ARTHUR    CLOUDY    61  59  93 E12       30.13S
GALVESTON      CLOUDY    65  63  93 SE13      30.10F
ANGLETON       CLOUDY    65  64  97 E9        30.06F
*BAY CITY      HVY RAIN  65  65 100 CALM      30.07S
PALACIOS       RAIN      66  65  96 S3        30.06S FOG
$$

TXZ229>234-239>247-211200-
TEXAS COASTAL BEND AND RIO GRANDE PLAINS

CITY           SKY/WX    TMP DP  RH WIND       PRES   REMARKS
VICTORIA       CLOUDY    64  63  96 CALM      30.05S FOG
*BEEVILLE      CLOUDY    64  64 100 SE3       30.03S FOG
ROCKPORT       CLOUDY    65  64  97 SE5       30.03F FOG
*PORT ARANSAS  CLOUDY    64  63  97 CALM      30.04R FOG
*PORT LAVACA   CLOUDY    64  64  98 CALM      30.05S FOG
*INGLESIDE     CLOUDY    64  62  94 CALM      30.04S FOG
CORPUS CHRISTI CLOUDY    66  64  93 S6        30.03S
CORPUS NAS     CLOUDY    69  66  90 S7        30.02F
*ROBSTOWN      NOT AVBL
ALICE          LGT RAIN  66  64  93 SE5       30.02S FOG
KINGSVILLE NAS LGT RAIN  68  68 100 S9        30.03S
COTULLA        CLOUDY   N/A N/A N/A SE7       30.01F
*FAITH RANCH   CLOUDY    64  64 100 SE7       30.00S
LAREDO         CLOUDY    68  67  96 SE6       30.02S
$$

TXZ248>255-211200-
DEEP SOUTH TEXAS

CITY           SKY/WX    TMP DP  RH WIND       PRES   REMARKS
BROWNSVILLE    LGT RAIN  69  68  96 S10       30.03R FOG
PORT ISABEL    CLOUDY    67  66  97 SE5       30.02S
*SOUTH PADRE   CLOUDY   N/A N/A N/A S7        30.02S
HARLINGEN      LGT RAIN  68  67  96 S5        30.01F FOG
*HEBBRONVILLE  CLOUDY    67  65  92 SE7       30.02F FOG
MCALLEN        MOCLDY    69  68  96 SE10      30.01F
*WESLACO       CLOUDY    68  66  93 SE5       30.01S
FALFURRIAS     CLOUDY    69  66  90 SE6       30.01F
EDINBURG       HVY RAIN  70  67  91 SE7       30.02S
*ZAPATA        CLOUDY    67  66  94 SE8       29.99F
$$

TXZ213>215-236>238-242>244-246-247-251-254-255-211200-
CMAN STATIONS

STATION/POSITION TIME  TEMP    WIND        PRES    WAVE
                       AIR SEA DIR/SP/G            HT/PER
                 (UTC) (F)     (DEG/KT/KT) (MB)    (FT/S)
SABINE PASS      1100   61 58  110/ 10/ 12 1020.1
SEA RIM ST PARK  1100   62     100/  9/ 11 1020.9
NORTH JETTY/GLS  1100   63 59  140/ 11/ 12   N/A
EAGLE POINT      1100   59 55  110/  7/  8 1019.1
MORGANS POINT    1100   61     100/  5/  7 1019.1
MISSION/ARANSAS  1000          140/  3     1018.0
PORT O`CONNOR    1100          160/  9/ 10   N/A
PORT ARANSAS     1100   67 63  190/  3/  3 1017.5
MALAQUITE BEACH  1100   67 65  190/  7/  9 1016.1
BAFFIN BAY       1100   63 68  190/  5/  5 1016.7
PORT ISABEL      1100   69 61  150/  5/  8 1016.5
$$

GMZ080-GMZ150>470-211200-
OFFSHORE BUOY REPORTS

STATION/POSITION TIME  TEMP    WIND        PRES    WAVE
                       AIR SEA DIR/SP/G            HT/PER
                 (UTC) (F)     (DEG/KT/KT) (MB)    (FT/S)
20 E GALVESTON   1100   65 62  160/ 10/ 12 1019.5    5/ 7
90 E PT ARANSAS  1100   73 73  150/ 21/ 25 1017.9    7/ 7
35 NE PT MANSFLD 1100   75 74  150/ 17/ 21 1016.3    7/ 7
200 E PT ISABEL  1100   72 75  120/ 16/ 17 1019.1    4/ 5
$$



015
ASUS44 KLUB 211110
RWRTX
WEST TEXAS WEATHER ROUNDUP
NATIONAL WEATHER SERVICE LUBBOCK TX
500 AM CST FRI NOV 21 2014

NOTE: "FAIR" INDICATES FEW OR NO CLOUDS BELOW 12,000 FEET WITH NO
SIGNIFICANT WEATHER AND/OR OBSTRUCTIONS TO VISIBILITY.

TXZ004-006>008-010-012-014-016-OKZ002-211200-
TEXAS PANHANDLE/OKLAHOMA PANHANDLE

CITY           SKY/WX    TMP DP  RH WIND       PRES   REMARKS
AMARILLO       CLEAR     28  26  92 N6        30.01F WCI  22
BORGER         CLEAR     29  26  89 SW5       30.03F FOG     WCI  24
CANADIAN         N/A     26  24  96 CALM      30.04R
DALHART        PTCLDY    25  20  81 NW7       30.03S WCI  17
DUMAS            N/A     23  20  85 NW5       30.01F WCI  17
GUYMON         PTCLDY    27  24  89 NW5       30.03F WCI  22
HEREFORD       CLEAR     25  24  96 W6        30.02S WCI  18
PAMPA          FOG       26  26  97 NW6       30.03S VSB 1/4 WCI  20
PERRYTON       CLEAR     26  23  89 NW6       30.04R WCI  19
$$

TXZ026-029-035-045-048-211200-
SOUTHERN PANHANDLE/SOUTH PLAINS/ROLLING PLAINS

CITY           SKY/WX    TMP DP  RH WIND       PRES   REMARKS
CHILDRESS      CLEAR     35  32  88 NW9       30.00S WCI  28
SEMINOLE       PTCLDY    38  23  54 CALM      30.01F
LUBBOCK        PTCLDY    28  25  88 W6        29.98F WCI  22
PLAINVIEW      CLEAR     30  28  92 CALM      29.98F
SNYDER         FOG       43  43  99 S5        30.01S VSB 1/4
$$

TXZ052-054-060>062-072-078-127-140-154-169-211200-
PERMIAN BASIN/CONCHO VALLEY/BIG COUNTRY/EDWARDS PLATEAU

CITY           SKY/WX    TMP DP  RH WIND       PRES   REMARKS
ABILENE        CLOUDY    56  53  90 S14       30.01R
BIG SPRING     CLOUDY    54  52  93 S13       30.02S
BROWNWOOD      CLOUDY    50  50 100 MISG      30.04R
JUNCTION       CLOUDY    53  50  89 NW5       30.03R
MIDLAND        PTCLDY   N/A N/A N/A MISG      30.00R
ODESSA         PTCLDY    46  45  96 SW6       30.00S FOG
SAN ANGELO     CLOUDY    58  55  90 SW13      30.02S
SONORA         CLOUDY    57  57 100 S6        30.08R
SWEETWATER     CLOUDY    54  54 100 S14G21    30.03R
WINK             N/A     34  28  79 N7        29.99S WCI  28
$$

TXZ055-058-074-075-080-082-211200-
FAR WEST/SOUTHWEST MOUNTAINS/TRANS PECOS

CITY           SKY/WX    TMP DP  RH WIND       PRES   REMARKS
ALPINE         CLEAR     40  27  58 SW7       30.12S
DRYDEN           N/A     53  52  96 NE7       30.01S
EL PASO        MOCLDY    43  23  45 CALM      30.01F
FORT STOCKTON  PTCLDY    52  25  35 SW14      30.00S
GUADALUPE PASS MOCLDY    47  19  33 SW15      30.06F
MARFA          CLEAR     30  25  80 N7        30.09S WCI  23
PECOS          MOCLDY    37  29  71 CALM      30.00S
PRESIDIO       FAIR      44  36  72 NE3       30.02S
$$

TXZ014-016-019-021>030-083-211200
TEXAS TECH WEST TEXAS MESONET/TEXAS PANHANDLE/NORTHERN SOUTH PLAINS

CITY           SKY/WX    TMP DP  RH WIND       PRES   REMARKS
ABERNATHY 5ENE   N/A     30  29  96 NW7       30.00R WCI  23
AMARILLO 9NNE    N/A     21  19  94 S1        30.03S
AMARILLO 7SSE    N/A     25  23  93 NW6       30.02S WCI  18
AMHERST 1NE      N/A     27  25  92 NW9       30.01S WCI  18
BOOTLEG 11WNW    N/A     33  27  81 CALM      30.03S
CANADIAN 6E      N/A     26  25  94 NW3       30.03R
CAPROCK CYN SP   N/A     33  32  95 NW6       30.00S WCI  28
CHILDRESS 2NNE   N/A     33  32  94 NW10      29.99S WCI  25
CLARENDON 2WSW   N/A     31  28  90 NW5       30.00S WCI  26
CLAUDE 12SW      N/A     29  28  94 N10       29.99F WCI  20
DIMMITT 2NE      N/A     25  23  91 NW9       30.01S WCI  16
FLOYDADA 2NNE    N/A     28  26  95 N5        29.98F WCI  22
FRIONA 2NE       N/A     21  19  91 W6        30.02S WCI  14
GOODLETT 3W      N/A     36  34  92 NW9       29.98S WCI  29
HART 3N          N/A     26  25  94 NW6       30.01R WCI  20
HEREFORD 2NW     N/A     26  23  90 NW2       30.01S
MCLEAN 1E        N/A     29  28  96 NW10      29.99S WCI  19
MEMPHIS 1NE      N/A     38  34  86 N6        30.00S WCI  33
MULESHOE 2SSW    N/A     22  21  94 W6        30.02S WCI  15
OLTON 6S         N/A     27  24  89 W7        30.00S WCI  19
PALO DURO SP     N/A     33  30  91 N7        30.02S WCI  26
PAMPA 2E         N/A     28  28  98 NW5       30.02S WCI  23
PLAINVIEW 1S     N/A     30  28  94 CALM      29.99S
SILVERTON 7ESE   N/A     31  29  94 N8        30.00S WCI  23
TULIA 2ENE       N/A     26  26  98 NW8       30.00S WCI  18
TURKEY 2WSW      N/A     36  33  90 NW9       29.99F WCI  29
UMBARGER 3NNE    N/A     24  22  91 NW7       30.02R WCI  16
$$

TXZ033>036-039>041-045>048-211200
TEXAS TECH WEST TEXAS MESONET/SOUTH PLAINS

CITY           SKY/WX    TMP DP  RH WIND       PRES   REMARKS
AIKEN 3WSW       N/A     27  26  96 NW7       30.00S WCI  20
ANTON 6SSW       N/A     29  27  92 NW7       30.00S WCI  22
BROWNFIELD 2S    N/A     31  26  83 NW5       30.00S WCI  26
DENVR CTY 7WNW   N/A     32  21  63 N5        29.99F WCI  27
GAIL 2ESE        N/A     43  40  87 W6        30.00R
LAMESA 2SE       N/A     33  32  94 W5        30.01S WCI  29
LEVELLAND 4S     N/A     26  23  88 W6        29.99S WCI  20
LUBBOCK 3WNW     N/A     29  26  89 NW1       29.99F
MORTON 1ENE      N/A     28  26  90 NW7       30.00F WCI  21
ODONNELL 1N      N/A     34  30  88 SW5       29.99S WCI  29
PLAINS 3N        N/A     32  23  70 NW5       30.00F WCI  27
RALLS 1SE        N/A     29  27  90 CALM      29.99F
REESE CENTER     N/A     27  25  92 W7        29.99S WCI  19
SEAGRAVES 1SW    N/A     30  23  74 W3        30.01S
SEMINOLE 2NNE    N/A     35  22  58 NW5       30.01S WCI  31
SLATON 2NE       N/A     30  28  90 CALM      29.99F
SNYDER 3E        N/A     46  45  97 S8        29.99F
SUNDOWN 8SW      N/A     28  24  85 W6        30.00S WCI  21
TAHOKA 3NNE      N/A     31  27  86 NW6       29.98F WCI  25
WOLFFORTH 6SSW   N/A     29  27  92 NW5       30.00S WCI  24
$$

TXZ031-032-036>038-042>044-211200-
TEXAS TECH WEST TEXAS MESONET/ROLLING PLAINS

CITY           SKY/WX    TMP DP  RH WIND       PRES   REMARKS
ASPERMONT 3NE    N/A     35  32  87 S3        30.00S
FLUVANNA 3WNW    N/A     41  38  89 SW6       29.99S
GRAHAM 5SSW      N/A     43  35  74 SW6       29.99S
GUTHRIE 10WSW    N/A     36  33  87 W1        29.99R
HASKELL 1NW      N/A     40  35  81 SW2       30.00R
JAYTON 1SSE      N/A     35  32  90 W5        30.00R WCI  30
KNOX CITY 3NW    N/A     36  32  88 S5        30.01R WCI  32
LK A HENRY 1NW   N/A     35  29  81 W3        29.99S
NORTHFIELD 1S    N/A     32  31  96 W6        30.00S WCI  27
ODELL 4ENE       N/A     32  32  99 S2        29.99R
PADUCAH 10SW     N/A     36  33  90 W9        29.99S WCI  29
POST 1NE         N/A     36  31  79 SW1       29.99F
RRING SPRGS 3N   N/A     38  35  88 N7        29.99S WCI  33
SEYMOUR 3NW      N/A     39  36  89 SW6       30.00R WCI  34
SPUR 1W          N/A     33  31  94 W1        29.98F
WEINERT 2NNE     N/A     38  34  85 W3        30.00S
WHITE RVR 6NE    N/A     40  34  78 W5        29.98S
$$

TXZ052-054-060>062-072-078-127-140-154-169-211200-
TEXAS TECH WEST TEXAS MESONET/PERMIAN BASIN/
CONCHO VALLEY/BIG COUNTRY/EDWARDS PLATEAU

CITY           SKY/WX    TMP DP  RH WIND       PRES   REMARKS
COYANOSA 2N      N/A     36  29  75 S3        30.01S
JUNCTION 1SSW    N/A     51  50  95 N2        30.04S
MERTZON 3NNE     N/A     56  54  91 S14       30.02S
SAN ANGELO 7NW   N/A     58  53  82 SW7       30.02F
STRLNG CT 4WSW   N/A     55  51  87 SE3       30.03S
ST LAWRNCE 5SW   N/A     52  51  97 S12       30.01S
SWEETWATR 11SW   N/A     53  51  95 SW8       30.02S
WALL 1E          N/A     57  53  85 S7        30.03S
$$

TXZ055-058-074-075-080-082-211200-
TEXAS TECH WEST TEXAS MESONET/FAR WEST/SOUTHWEST MOUNTAINS/TRANS PECOS

CITY           SKY/WX    TMP DP  RH WIND       PRES   REMARKS
PRSMN GAP BBNP   N/A     44  36  74 S5        30.02S
GUADLPE MTN NP   N/A     54  14  20 W12       30.06S
$$